AO-07 1 07530U 74089B 20163.67832861 -.00000033 00000-0 76639-4 0 9998 2 07530 101.7991 133.4513 0012431 17.0994 155.7519 12.53643727 85507 UO-11 1 14781U 84021B 20163.01512204 .00000079 00000-0 15751-4 0 9992 2 14781 097.5899 175.3105 0007499 213.9706 146.1029 14.83171384930879 LO-19 1 20442U 90005G 20163.08832849 -.00000008 00000-0 13598-4 0 9999 2 20442 098.6919 110.3155 0011882 168.2299 191.9164 14.32954375587643 HUBBLE 1 20580U 90037B 20163.85584803 .00000072 00000-0 -66854-5 0 9991 2 20580 28.4749 356.6709 0002686 37.1556 322.9374 15.09396995455208 MET-2/21 1 22782U 93055A 20162.96568426 -.00000005 00000-0 -18003-4 0 9993 2 22782 082.5502 238.7279 0021150 252.1204 281.1123 13.83827048352145 AO-27 1 22825U 93061C 20163.77554133 -.00000018 00000-0 11108-4 0 9990 2 22825 98.9230 166.0853 0009110 39.7870 320.3978 14.30086515393275 IO-26 1 22826U 93061D 20163.55344239 -.00000009 00000-0 14559-4 0 9994 2 22826 098.9171 165.8054 0009465 028.9343 331.2362 14.30422173393203 FO-29 1 24278U 96046B 20163.77046621 -.00000010 00000-0 25077-4 0 9990 2 24278 98.5833 274.3450 0350788 29.7194 332.3378 13.53097864176367 NOAA-15 1 25338U 98030A 20163.61026565 .00000054 00000-0 41269-4 0 9999 2 25338 98.7168 188.6913 0009198 280.8934 79.1210 14.25971357148398 GO-32 1 25397U 98043D 20163.26062790 -.00000006 00000-0 16530-4 0 9990 2 25397 098.7282 104.8049 0002409 082.2238 277.9214 14.23686010138678 ISS 1 25544U 98067A 20163.89388889 .00000390 00000-0 15047-4 0 9996 2 25544 51.6452 14.6661 0002286 44.8231 142.3436 15.49436998231196 NO-44 1 26931U 01043C 20163.43642194 -.00000052 00000-0 11780-4 0 9993 2 26931 067.0494 157.9229 0005914 271.0964 088.9459 14.30579292976216 SO-50 1 27607U 02058C 20163.60744832 -.00000024 00000-0 17152-4 0 9990 2 27607 64.5564 32.2427 0048630 178.7260 181.3976 14.75639370939995 CO-55 1 27844U 03031E 20163.52279289 .00000036 00000-0 35791-4 0 9996 2 27844 098.6812 171.3480 0011109 074.8791 285.3615 14.22241743879254 CO-57 1 27848U 03031J 20163.75883683 .00000026 00000-0 31364-4 0 9995 2 27848 98.6880 172.1369 0011024 85.1983 275.0453 14.21827989879169 RS-22 1 27939U 03042A 20163.86104443 .00000058 00000-0 19033-4 0 9994 2 27939 98.0910 298.7552 0013120 17.4617 342.7033 14.66864615893199 NOAA-18 1 28654U 05018A 20163.28372572 .00000078 00000-0 66960-4 0 9993 2 28654 99.0438 219.6551 0013293 246.3815 113.5961 14.12517017776135 CO-58 1 28895U 05043F 20163.80871131 .00000105 00000-0 29094-4 0 9999 2 28895 98.0091 300.3221 0015496 300.9160 59.0518 14.63774314780010 Falconsat-3 1 30776U 07006E 20163.12593695 .00002232 00000-0 60061-4 0 9994 2 30776 035.4352 320.4964 0001657 141.0676 219.0171 15.37796561735869 CO-65 1 32785U 08021C 20163.55048276 .00000135 00000-0 20174-4 0 9992 2 32785 97.5724 151.8271 0013820 146.9653 213.2431 14.88475183657063 AAUSAT2 1 32788U 08021F 20163.56286638 .00000811 00000-0 78945-4 0 9992 2 32788 097.4909 168.3242 0013438 077.6283 282.6442 14.95064806658433 DO-64 1 32789U 08021G 20163.16245099 .00000710 00000-0 50397-4 0 9994 2 32789 097.4183 206.1845 0011414 345.9978 014.0933 15.07729524660863 CO-66 1 32791U 08021J 20163.42740851 .00000155 00000-0 20995-4 0 9996 2 32791 097.5402 157.8444 0014702 119.2307 241.0384 14.91053838657485 RS-30 1 32953U 08025A 20163.68260919 .00000037 00000-0 19437-3 0 9997 2 32953 82.5025 281.4896 0019966 68.7817 291.5392 12.43096466546919 PRISM 1 33493U 09002B 20163.57239696 .00000730 00000-0 68807-4 0 9995 2 33493 098.1439 103.6193 0016421 076.4993 283.8056 14.97039110618825 NOAA-19 1 33591U 09005A 20163.71224536 .00000055 00000-0 55334-4 0 9991 2 33591 99.1950 168.9113 0015051 92.0304 268.2590 14.12413972584581 TISAT-1 1 36799U 10035E 20163.39845750 .00000209 00000-0 27061-4 0 9997 2 36799 098.1942 333.4393 0012046 356.9601 003.1541 14.91361016538024 JUGNU 1 37839U 11058B 20162.49637332 .00000290 00000-0 12606-4 0 9993 2 37839 019.9624 324.9586 0018923 311.8270 083.2610 14.12681276447806 SRMSAT 1 37841U 11058D 20162.93504714 .00000313 00000-0 27045-4 0 9991 2 37841 019.9736 026.4879 0011923 172.0103 308.9030 14.10660458447335 AO-71 1 37854U 11061E 20163.19186457 .00001324 00000-0 73726-4 0 9998 2 37854 101.6997 251.2105 0158419 080.4830 281.4246 15.07292250470538 HRBE 1 37855U 11061F 20163.26652154 .00001423 00000-0 77348-4 0 9993 2 37855 101.7129 248.4854 0171076 93.3517 268.7281 15.06311142470746 HORYU-2 1 38340U 12025D 20162.63379868 .00000142 00000-0 28600-4 0 9996 2 38340 098.2808 216.0031 0012704 066.4964 293.7578 14.75856439423548 RS-40 1 38735U 12041C 20163.73347375 .00000021 00000-0 83262-4 0 9993 2 38735 82.4763 4.2331 0016826 171.3836 188.7528 12.42580026357142 BEESAT-3 1 39135U 13015F 20163.57683523 .00000939 00000-0 54945-4 0 9994 2 39135 064.8661 320.3901 0036419 248.5334 111.1907 15.18174224394320 BEESAT-2 1 39136U 13015G 20162.83126260 .00000771 00000-0 47822-4 0 9993 2 39136 64.8696 327.7470 0030506 279.7707 79.9975 15.17562967394502 ZACUBE-1 1 39417U 13066B 20163.42047150 .00000164 00000-0 26967-4 0 9990 2 39417 097.5644 161.7792 0057434 298.5264 061.0175 14.81278031354145 TRITON-1 1 39427U 13066M 20163.82115787 .00000176 00000-0 35684-4 0 9996 2 39427 97.7248 125.0614 0115062 95.9124 265.5214 14.68003613351037 GOMX-1 1 39430U 13066Q 20163.84017408 .00000114 00000-0 29855-4 0 9998 2 39430 97.7907 102.7081 0150311 201.8122 157.6643 14.59400905348987 LO-74 1 39440U 13066AA 20163.45622942 .00000179 00000-0 31792-4 0 9995 2 39440 097.6303 146.2885 0080169 000.8700 359.2636 14.76014132351690 AO-73 1 39444U 13066AE 20163.42170202 .00000205 00000-0 31610-4 0 9992 2 39444 097.5588 164.0078 0056413 290.5648 068.9519 14.82131222352472 SPROUT 1 39770U 14029E 20163.76690530 .00000462 00000-0 56723-4 0 9999 2 39770 97.8965 270.0688 0008669 356.5833 3.5311 14.87764752328215 DUCHIFAT-1 1 40021U 14033M 20163.30630395 .00000316 00000-0 37877-4 0 9995 2 40021 097.9426 094.5042 0011803 313.1548 046.8682 14.90908679324970 NANOSATCBR1 1 40024U 14033Q 20163.25862327 .00000237 00000-0 30429-4 0 9992 2 40024 097.9276 090.8572 0011208 318.6789 041.3579 14.90077430324314 DTUSAT-2 1 40030U 14033W 20163.03281035 .00000164 00000-0 23553-4 0 9995 2 40030 097.9035 084.8244 0010981 323.0292 037.0167 14.88716869324564 EO-80 1 40032U 14033Y 20163.72363648 .00000228 00000-0 30477-4 0 9998 2 40032 97.9040 85.5159 0010926 321.4661 38.5775 14.88666205324655 ANTELSAT 1 40034U 14033AA 20163.36106995 .00000148 00000-0 29159-4 0 9996 2 40034 097.7152 019.3472 0059229 019.8459 340.5035 14.74259057320989 VELOX-1 1 40057U 14034E 20163.61039922 .00000218 00000-0 37973-4 0 9996 2 40057 98.2794 300.4150 0011472 158.1602 202.0102 14.77875172320773 DAURIA DX 1 1 40071U 14037C 20163.77546554 .00000065 00000-0 15856-4 0 9992 2 40071 98.4597 341.8633 0008978 147.9156 212.2601 14.81367478320412 HODOYOSHI-1 1 40299U 14070B 20163.87172074 .00000451 00000-0 21433-4 0 9991 2 40299 97.3226 240.7389 0012068 208.7500 216.0960 15.24069812310968 CHUBUSAT-1 1 40300U 14070C 20163.76425218 .00000491 00000-0 24077-4 0 9994 2 40300 97.2872 233.0953 0018481 230.7979 247.3340 15.22511028310642 QSAT-EOS 1 40301U 14070D 20163.87957693 .00001392 00000-0 54936-4 0 9992 2 40301 97.2925 238.4485 0024529 204.2283 215.5742 15.26944474311086 FIREBIRD FU3 1 40377U 15003B 20163.73322761 .00001203 00000-0 50056-4 0 9999 2 40377 99.0950 222.7664 0123182 333.7143 25.7868 15.20068259296444 FIREBIRD FU4 1 40378U 15003C 20163.65171342 .00001244 00000-0 51535-4 0 9996 2 40378 99.0951 222.7664 0123355 333.8523 25.6510 15.20084126296434 GRIFEX 1 40379U 15003D 20163.67380748 .00001033 00000-0 47236-4 0 9990 2 40379 99.1023 214.7444 0132759 358.6936 1.3925 15.16420065295974 NO-84 1 40654U 15025D 20162.10648507 .00014148 00000-0 16398-3 0 9565 2 40654 54.9863 334.5712 0117917 167.4643 192.9370 15.54083807167880 DEORBITSAIL 1 40719U 15032E 20163.67503759 .00000310 00000-0 51079-4 0 9996 2 40719 97.8708 52.4597 0015053 223.6170 136.3851 14.77004480265240 NUDT-PHONESAT 1 40900U 15049B 20163.74608212 .00001869 00000-0 79737-4 0 9995 2 40900 97.4302 174.7503 0012897 12.4625 97.1868 15.24101955262321 XW-2A 1 40903U 15049E 20163.73968894 .00001616 00000-0 38477-4 0 9998 2 40903 97.2869 212.6879 0011431 286.3893 194.6717 15.43082194265592 XW-2C 1 40906U 15049H 20163.78391757 .00000366 00000-0 22455-4 0 9994 2 40906 97.4759 165.2171 0015863 38.9625 135.8111 15.16072295261390 XW-2D 1 40907U 15049J 20163.70128207 .00000418 00000-0 24981-4 0 9999 2 40907 97.4740 164.8412 0015130 36.3334 76.9934 15.16305087261408 LILACSAT-2 1 40908U 15049K 20163.83056892 .00000004 00000-0 38191-5 0 9994 2 40908 97.4900 163.3284 0017153 44.7927 76.7081 15.14039931261148 XW-2E 1 40909U 15049L 20163.81714529 .00000909 00000-0 47373-4 0 9996 2 40909 97.4630 168.4256 0014381 28.4371 95.3317 15.18431510261676 XW-2F 1 40910U 15049M 20163.69970414 .00000724 00000-0 38911-4 0 9994 2 40910 97.4673 167.4056 0015474 26.6414 95.7387 15.17939362261469 XW-2B 1 40911U 15049N 20163.74911459 .00000561 00000-0 32427-4 0 9990 2 40911 97.4760 165.5847 0015133 37.1290 66.2680 15.16231622261300 DCBB 1 40912U 15049P 20163.70078988 .00000911 00000-0 44992-4 0 9997 2 40912 97.4479 171.5489 0014869 5.8747 103.9355 15.20333571261849 TW-1C 1 40926U 15051B 20163.56714919 .00019817 00000-0 19723-3 0 9998 2 40926 097.0841 215.3034 0007894 109.8419 027.5832 15.65703493266105 TW-1A 1 40928U 15051D 20163.76389190 .00002346 00000-0 55795-4 0 9990 2 40928 97.1084 191.7338 0009691 198.2543 282.1545 15.42594922264498 IO-86 1 40931U 15052B 20163.00018356 .00000617 00000-0 -31558-5 0 9997 2 40931 5.9983 21.4355 0012936 188.4044 171.5867 14.76635897254308 LQSat 1 40958U 15057A 20163.14083842 .00000005 00000-0 83273-5 0 9999 2 40958 097.8527 226.7210 0018502 165.9826 194.1899 14.73121654251585 ATHENOXAT-1 1 41168U 15077C 20163.17655658 .00001675 00000-0 51919-4 0 9993 2 41168 14.9880 107.4684 0011278 41.0955 319.0214 15.14376129248390 ChubuSat-2 1 41338U 16012B 20163.64717972 .00000281 00000-0 15083-4 0 9996 2 41338 31.0045 23.3264 0013556 58.9428 301.2536 15.00295703236867 ChubuSat-3 1 41339U 16012C 20163.77550733 .00000248 00000-0 12492-4 0 9995 2 41339 31.0135 20.1534 0013455 66.8484 293.3568 15.00460266236887 Horyu-4 1 41340U 16012D 20163.25006914 .00000411 00000-0 24390-4 0 9999 2 41340 31.0063 11.2917 0013682 87.3223 272.8979 15.01501765236942 OUFTI-1 1 41458U 16025C 20163.77193601 .00001447 00000-0 76319-4 0 9998 2 41458 98.1050 274.0464 0162500 228.4815 130.2374 15.06838814226620 e-st@r-II 1 41459U 16025D 20163.74945857 .00000737 00000-0 41535-4 0 9997 2 41459 98.1043 273.4416 0163866 230.5228 128.1404 15.06399748226584 AAUSAT4 1 41460U 16025E 20163.76281039 .00001960 00000-0 99415-4 0 9995 2 41460 98.1020 275.7637 0153168 219.2847 139.7158 15.08698925226783 LO-87 1 41557U 16033B 20163.81283009 .00001067 00000-0 41676-4 0 9990 2 41557 97.4034 254.0726 0015222 106.3542 253.9373 15.28015890224919 NuSat2 1 41558U 16033C 20163.78555290 .00001172 00000-0 42903-4 0 9992 2 41558 97.4089 256.3266 0014265 103.9273 256.3556 15.30001870225023 Lapan A3 1 41603U 16040E 20163.87941975 .00000137 00000-0 94734-5 0 9990 2 41603 97.3085 217.5992 0012164 216.7317 253.9561 15.19840266220292 Swayam 1 41607U 16040J 20163.16095057 .00001264 00000-0 54630-4 0 9999 2 41607 97.3176 222.6798 0012407 201.9696 158.1012 15.24229793220462 Pratham 1 41783U 16059A 20163.72759333 .00000035 00000-0 15903-4 0 9995 2 41783 98.0165 219.3484 0032893 336.5227 23.4472 14.63058528198044 AlSat 1N 1 41789U 16059G 20163.74999288 .00000075 00000-0 23156-4 0 9991 2 41789 98.0201 222.1747 0027413 324.0152 35.9201 14.64323240198197 ScatSat 1 41790U 16059H 20163.74226857 .00000020 00000-0 15970-4 0 9993 2 41790 98.1610 204.1997 0004839 311.2679 48.8101 14.50919894196393 TY-1 1 41844U 16066D 20163.86171476 .00000742 00000-0 32712-4 0 9994 2 41844 97.4019 172.0938 0015395 10.3903 109.1128 15.24848589199412 Pegasus-1 1 41846U 16066F 20163.65168510 .00000211 00000-0 43216-4 0 9990 2 41846 98.6616 213.6458 0365675 250.4158 105.7212 14.37768547188138 CAS-2T 1 41847U 16066G 20163.64010671 .00000070 00000-0 21756-4 0 9992 2 41847 98.6541 214.0972 0364577 246.1912 110.0659 14.38069511188581 EO-88 1 42017U 17008BX 20163.12506846 .00001267 00000-0 51302-4 0 9995 2 42017 097.3599 230.7795 0005942 001.3438 358.7816 15.26487904184580 CAS-4B 1 42759U 17034B 20163.86239013 .00000003 00000-0 13657-4 0 9995 2 42759 43.0191 57.7703 0011652 350.0436 97.6415 15.09826871165126 CAS-4A 1 42761U 17034D 20163.87391588 .00000026 00000-0 15083-4 0 9995 2 42761 43.0197 57.0107 0012085 351.0903 100.8223 15.09905552165125 UCLSat 1 42765U 17036A 20163.11466688 .00001032 00000-0 46033-4 0 9999 2 42765 97.3009 217.5267 0012683 54.4749 305.7670 15.23519792165023 NIUSat 1 42766U 17036B 20163.28768472 .00000807 00000-0 38548-4 0 9995 2 42766 097.3004 215.1838 0016645 046.7442 313.5180 15.21716237164756 LituanicaSAT 2 1 42768U 17036D 20163.42233949 .00001783 00000-0 76157-4 0 9991 2 42768 097.3065 217.7888 0015749 043.0501 317.1966 15.24061917164920 Aalto 1 1 42775U 17036L 20163.66647676 .00000678 00000-0 32760-4 0 9995 2 42775 97.2985 215.8977 0015021 45.3914 314.8545 15.21838185164790 URSA MAIOR 1 42776U 17036M 20163.72222280 .00000750 00000-0 35736-4 0 9990 2 42776 97.2996 216.2339 0014818 45.0486 315.1949 15.22020730164819 Max Valier Sat 1 42778U 17036P 20163.09907008 .00000834 00000-0 38759-4 0 9991 2 42778 097.3051 216.9107 0013514 050.7519 309.4914 15.22614302164762 Pegasus 1 42784U 17036V 20163.07298496 .00000971 00000-0 43868-4 0 9999 2 42784 097.3014 217.1782 0013247 055.0648 305.1831 15.23208813164807 NUDATSat 1 42787U 17036Y 20163.59488265 .00001598 00000-0 67710-4 0 9992 2 42787 097.3056 219.0672 0013035 044.6249 315.6038 15.24515522164805 SUCHAI 1 1 42788U 17036Z 20162.90252022 .00001193 00000-0 52399-4 0 9995 2 42788 097.3023 217.5945 0012779 054.3695 305.8730 15.23757154164889 SKCUBE 1 42789U 17036AA 20163.14494962 .00001104 00000-0 48944-4 0 9997 2 42789 097.3017 217.6851 0012641 053.9311 306.3095 15.23600307164830 VZLUSAT 1 1 42790U 17036AB 20163.12435507 .00001413 00000-0 60223-4 0 9994 2 42790 097.3042 218.6043 0012103 052.3573 307.8761 15.24501379164881 VENTA 1 1 42791U 17036AC 20163.18461677 .00001022 00000-0 45543-4 0 9992 2 42791 097.3015 217.7666 0012318 054.3387 305.8995 15.23583766164837 Robusta 1B 1 42792U 17036AD 20163.42787162 .00001170 00000-0 51405-4 0 9998 2 42792 097.3019 218.2100 0012223 053.6094 306.6269 15.23788843164907 D-SAT 1 42794U 17036AF 20163.33639596 .00000108 00000-0 14631-4 0 9997 2 42794 097.4935 196.2953 0126863 026.1507 334.6045 14.91278853161783 TechnoSat 1 42829U 17042E 20163.24345835 .00000044 00000-0 97833-5 0 9998 2 42829 097.5207 045.3152 0013001 310.1684 049.8396 14.91101155158365 QIKCOM-1 1 42983U 98067NF 20163.74015103 .00003671 00000-0 48006-4 0 9998 2 42983 51.6393 334.3021 0003900 42.9139 317.2159 15.61538385149390 AO-91 1 43017U 17073E 20163.30070025 .00000660 00000-0 55894-4 0 9999 2 43017 097.7234 075.7740 0258490 070.5118 292.3821 14.78930970138253 EcAMSat 1 43019U 98067NG 20163.70181180 .00007917 00000-0 80614-4 0 9992 2 43019 51.6410 320.6267 0003678 30.2659 329.8548 15.66190838231890 PICSAT 1 43132U 18004X 20163.73501585 .00001216 00000-0 52481-4 0 9996 2 43132 97.4472 235.1108 0011228 76.8478 283.4012 15.24409883134183 AO-92 1 43137U 18004AC 20162.98443722 .00000871 00000-0 38755-4 0 9999 2 43137 97.4458 234.1890 0010856 80.8763 279.3702 15.24116330134055 TianYi 2 1 43155U 18008A 20163.72345368 .00000887 00000-0 55732-4 0 9994 2 43155 97.4465 232.9608 0018143 162.7364 312.7264 15.11632223132053 Zhou Enlai 1 43156U 18008B 20163.75258078 .00000592 00000-0 38969-4 0 9995 2 43156 97.4500 232.8373 0015095 160.6305 317.6917 15.11171485132010 TianYi 6 1 43158U 18008D 20163.76827404 .00000329 00000-0 23585-4 0 9999 2 43158 97.4440 231.9182 0013781 158.5627 317.2800 15.10706205131969 S-Net G 1 43186U 18014G 20163.29819929 .00000706 00000-0 66718-4 0 9992 2 43186 097.6951 071.2373 0009378 240.9854 119.0429 14.96811372128776 S-Net H 1 43187U 18014H 20163.76597365 .00000684 00000-0 64761-4 0 9993 2 43187 97.6949 71.6761 0009391 239.1009 120.9290 14.96811898128844 S-Net J 1 43188U 18014J 20163.29789107 .00000715 00000-0 67422-4 0 9991 2 43188 097.6952 071.2450 0009376 240.9956 119.0327 14.96810935128777 S-Net K 1 43189U 18014K 20163.76626119 .00000673 00000-0 63806-4 0 9992 2 43189 97.6949 71.6718 0009375 239.0808 120.9492 14.96811155127395 FMN 1 1 43192U 18015A 20163.76271421 .00001846 00000-0 75250-4 0 9998 2 43192 97.4431 293.2783 0017373 108.1447 27.8327 15.25605801131039 Shaonian Xing 1 43199U 18015H 20163.75684529 .00001408 00000-0 57788-4 0 9991 2 43199 97.4214 291.5602 0018278 117.0599 18.9628 15.25765628131093 1KUNS-PF 1 43466U 98067NP 20162.72983235 .07919004 12439-4 62785-3 0 9997 2 43466 51.6123 283.7308 0007318 301.8476 166.2040 16.39179723119460 UBAKUSAT 1 43467U 98067NQ 20163.64275856 .00028064 00000-0 18595-3 0 9990 2 43467 51.6344 311.6353 0000747 344.5386 15.5591 15.75285662119196 EnduroSat One 1 43551U 98067NZ 20163.42476241 .00049710 00000-0 25019-3 0 9991 2 43551 051.6340 310.1308 0001593 056.9566 303.1589 15.81157921109425 EQUISat 1 43552U 98067PA 20163.45228820 .00026353 00000-0 18359-3 0 9990 2 43552 051.6356 319.4812 0003402 075.4021 284.7355 15.74157958109267 UiTMSat 1 1 43589U 98067PD 20163.61313862 .00036303 00000-0 22216-3 0 9992 2 43589 51.6360 316.6169 0002514 98.9987 261.1298 15.76962412105059 Maya 1 1 43590U 98067PE 20163.60594803 .00036144 00000-0 22132-3 0 9999 2 43590 51.6305 316.5661 0002229 92.7044 267.4211 15.76951915104986 Bhutan 1 1 43591U 98067PF 20163.45230282 .00036420 00000-0 22149-3 0 9996 2 43591 051.6371 317.1172 0002605 100.7460 259.3834 15.77101892104965 SiriusSat 1 1 43595U 98067PG 20163.62368698 .00030442 00000-0 20801-3 0 9993 2 43595 51.6314 321.2234 0001144 34.5498 325.5576 15.74527043104105 SiriusSat 2 1 43596U 98067PH 20163.81201333 .00029311 00000-0 20138-3 0 9993 2 43596 51.6330 321.0565 0001556 33.8638 326.2460 15.74421347104126 Tanusha-3 1 43597U 98067PJ 20163.81234236 .00077000 00000-0 31361-3 0 9990 2 43597 51.6286 308.0377 0002036 313.8298 46.2538 15.85476237104293 SurfSat 1 43614U 18070B 20163.22912882 .00002566 00000-0 66097-4 0 9991 2 43614 093.0201 152.0148 0015627 012.6330 347.5312 15.39169962097521 CP-7 DAVE 1 43615U 18070C 20163.71512040 .00002471 00000-0 63958-4 0 9996 2 43615 93.0202 152.2063 0015653 10.2987 349.8585 15.39027805 97595 ELFIN-B 1 43616U 18070D 20163.50073802 .00003669 00000-0 90756-4 0 9998 2 43616 093.0165 152.0583 0016173 012.6774 347.4884 15.40369614097604 ELFIN-A 1 43617U 18070E 20163.46982593 .00003980 00000-0 97895-4 0 9997 2 43617 093.0217 152.5524 0015367 010.1594 349.9968 15.40549005097604 STARS-Me Mother 1 43640U 98067PQ 20162.66001902 .00012834 00000-0 12998-3 0 9992 2 43640 051.6358 342.6959 0003604 014.3333 345.7764 15.65658912095665 CubeBel 1 1 43666U 18083E 20163.77092718 .00000768 00000-0 40755-4 0 9994 2 43666 97.4887 190.2927 0015724 25.8540 86.8655 15.18253461 89756 Changshagaoxin 1 43669U 18083H 20163.80701351 .00000640 00000-0 35488-4 0 9997 2 43669 97.4769 188.5386 0011397 22.3852 337.7877 15.17289530 89677 Ten-Koh 1 43677U 18084G 20163.58092799 .00000048 00000-0 10816-4 0 9991 2 43677 097.8824 280.6568 0016234 172.6583 187.4875 14.90288444088066 PO-101 1 43678U 18084H 20163.77227947 .00000442 00000-0 49729-4 0 9991 2 43678 97.8836 282.1756 0009620 187.7933 172.3134 14.91636437 88176 IRVINE 01 1 43693U 18088D 20163.24956257 .00002410 00000-0 10095-3 0 9997 2 43693 085.0358 081.1204 0016307 321.3528 038.6546 15.22861654087909 QO-100 1 43700U 18090A 20163.41229984 .00000138 00000-0 00000-0 0 9995 2 43700 000.0176 013.7425 0001477 088.2169 332.4477 01.00272243005641 Reaktor Hello World 1 43743U 18096AA 20163.00838692 .00001130 00000-0 44723-4 0 9992 2 43743 097.4211 236.9149 0018851 146.5230 213.7205 15.27399372085411 MinXSS-2 1 43758U 18099A 20163.44431792 -.00000140 00000-0 -74139-5 0 9996 2 43758 097.7065 235.4833 0014920 204.4856 155.5658 14.95666588083055 AO-95 1 43770U 18099N 20163.15005342 .00000666 00000-0 66052-4 0 9991 2 43770 97.7059 234.6404 0013728 212.6496 147.3878 14.94988015 82977 RANGE-B 1 43772U 18099Q 20163.70646980 .00000020 00000-0 70512-5 0 9994 2 43772 97.7127 235.6897 0013683 197.4745 162.6007 14.95177333 83057 RANGE-A 1 43773U 18099R 20163.74302234 .00000585 00000-0 58740-4 0 9994 2 43773 97.7000 234.8687 0013140 196.8664 163.2121 14.94966421 83054 MOVE-II 1 43780U 18099Y 20163.70299028 .00000186 00000-0 21978-4 0 9994 2 43780 97.7063 235.3902 0012771 207.8421 152.2118 14.95399852 83053 SNUSat 2 1 43782U 18099AA 20163.24626720 -.00000209 00000-0 -13797-4 0 9996 2 43782 097.7054 234.9447 0012240 198.1643 161.9142 14.95255873082993 SnugLite 1 43784U 18099AC 20163.75040017 .00000699 00000-0 68443-4 0 9992 2 43784 97.7021 235.2680 0014450 204.8828 155.1698 14.95354138 83083 ITASat 1 1 43786U 18099AE 20163.61682398 .00000657 00000-0 64731-4 0 9993 2 43786 97.7075 235.5145 0014561 204.5375 155.5154 14.95327740 83068 EAGLET 1 1 43790U 18099AJ 20163.20890312 .00000558 00000-0 55271-4 0 9999 2 43790 97.7062 235.3653 0012801 210.1791 149.8694 14.95705971 82713 ESEO 1 43792U 18099AL 20163.68715462 .00000503 00000-0 50414-4 0 9999 2 43792 97.7038 235.6630 0012577 204.9549 155.1066 14.95601087 82848 CSIM 1 43793U 18099AM 20163.33220031 .00000495 00000-0 49157-4 0 9997 2 43793 097.7027 235.2916 0012616 203.1297 156.9357 14.96044180082775 Astrocast 0.1 1 43798U 18099AS 20163.66737861 .00000230 00000-0 25662-4 0 9994 2 43798 97.7055 235.9139 0012366 187.5828 172.5209 14.95869068 83086 JO-97 1 43803U 18099AX 20163.16367926 .00000293 00000-0 31647-4 0 9996 2 43803 97.7036 234.8892 0014400 206.5787 153.4697 14.95505356 82998 Suomi 100 1 43804U 18099AY 20163.16445815 .00000240 00000-0 26841-4 0 9993 2 43804 97.7035 234.8787 0014455 206.7926 153.2550 14.95494221 83005 Al Farabi 2 1 43805U 18099AZ 20163.80821742 .00000692 00000-0 67353-4 0 9996 2 43805 97.7039 235.5935 0014711 204.2375 155.8155 14.95611219 83107 PWSat 2 1 43814U 18099BJ 20162.98595476 .00025093 00000-0 14516-2 0 9999 2 43814 97.7873 243.5728 0010879 175.5481 184.5848 15.12194953 82749 CHOMPTT 1 43855U 18104G 20163.45747710 .00000851 00000-0 34280-4 0 9991 2 43855 085.0373 179.1771 0019913 076.1891 284.1565 15.22964999082615 ISAT 1 43879U 18111D 20163.81359459 .00000465 00000-0 46334-4 0 9998 2 43879 97.7025 71.3350 0011616 262.6256 97.3646 14.96238482 77620 UWE-4 1 43880U 18111E 20163.52768963 -.00000187 00000-0 -11391-4 0 9990 2 43880 097.7037 071.3194 0010877 265.5277 094.4702 14.96469103079601 Sparrow 1 43881U 18111F 20163.17573536 .00000236 00000-0 25803-4 0 9998 2 43881 97.7051 71.0445 0010727 265.1537 94.8460 14.96534879 77553 Lume 1 1 43908U 18111AJ 20163.40562953 .00000818 00000-0 35369-4 0 9999 2 43908 097.2663 063.5187 0021709 160.1238 200.0851 15.25030153081100 FO-98 1 43933U 19003B 20163.40769702 .00000577 00000-0 28073-4 0 9995 2 43933 097.2303 213.3786 0016090 262.4053 097.5356 15.22107451077610 FO-99 1 43937U 19003F 20163.19048139 .00001005 00000-0 43604-4 0 9993 2 43937 097.2266 214.3926 0022409 244.9493 114.9418 15.24375773077689 Delphini 1 1 44030U 98067PW 20162.95083984 .00018866 00000-0 18530-3 0 9997 2 44030 051.6352 347.6454 0003498 070.3772 289.7601 15.66073058077499 MYSat 1 1 44045U 18092F 20163.72824932 .00001939 00000-0 64031-4 0 9996 2 44045 51.6401 70.0859 0010821 305.7339 54.2637 15.36663755 74406 AstroCast 0.2 1 44083U 19018F 20163.04223406 .00000564 00000-0 28063-4 0 9999 2 44083 097.4211 224.1764 0012921 187.1842 172.9211 15.21600700066408 AISTechSat 3 1 44103U 19018AB 20163.85662123 .00000600 00000-0 28349-4 0 9992 2 44103 97.4080 225.1441 0012731 200.0348 282.2273 15.23153129 66585 AISat 1 1 44104U 19018AC 20163.74614838 .00000636 00000-0 22910-4 0 9998 2 44104 97.4639 233.3837 0056827 232.1335 127.4758 15.31048898 66934 Raavana-1 1 44329U 98067QE 20163.29137648 .00009663 00000-0 13378-3 0 9993 2 44329 051.6404 005.0451 0005201 345.7489 014.3355 15.57816299056046 Uguisu 1 44330U 98067QF 20163.75259140 .00009475 00000-0 13166-3 0 9994 2 44330 51.6393 2.8707 0005239 345.7618 14.3225 15.57743120 56092 NepaliSat-1 1 44331U 98067QG 20163.02729884 .00009735 00000-0 13463-3 0 9991 2 44331 51.6390 6.2794 0005266 346.6968 13.3884 15.57834740 55999 Prox-1 1 44339U 19036A 20163.36133584 .00000718 00000-0 12053-3 0 9997 2 44339 023.9986 150.2143 0011744 086.8912 273.2923 14.53003964051244 Oculus-ASR 1 44348U 19036K 20163.81102664 .00004702 00000-0 65815-4 0 9994 2 44348 28.5195 60.2650 0367532 247.6206 108.5049 15.02416962 52951 Armadillo 1 44352U 19036P 20163.04003221 .00006865 00000-0 97827-4 0 9993 2 44352 28.5346 61.2088 0355471 245.3260 110.9922 15.05085005 52820 NO-104 1 44354U 19036R 20163.74671379 .00004899 00000-0 67577-4 0 9991 2 44354 28.5338 58.0717 0364431 250.0985 105.9991 15.03424887 52956 NO-103 1 44355U 19036S 20163.37791090 .00008794 00000-0 11970-3 0 9997 2 44355 028.5339 052.1405 0343603 259.7569 096.4112 15.08701727052998 CP9 1 44360U 19036X 20163.81277729 .00016233 -62057-5 17250-3 0 9990 2 44360 28.5168 35.4078 0326029 287.7803 68.7474 15.15723082 53067 Move-IIb 1 44398U 19038N 20163.53139716 .00000827 00000-0 51203-4 0 9998 2 44398 097.5357 124.8378 0026052 144.5940 215.7027 15.12311372051681 SONATE 1 44400U 19038Q 20163.36586142 .00000438 00000-0 29193-4 0 9993 2 44400 097.5393 124.6905 0026138 143.9783 216.3215 15.11950055051651 BeeSat 9 1 44412U 19038AC 20163.38155297 .00000700 00000-0 44000-4 0 9997 2 44412 097.5381 124.7888 0023515 148.6917 211.5719 15.12291132051357 JAISAT-1 1 44419U 19038F 20163.40378053 .00000614 00000-0 38575-4 0 9998 2 44419 097.5382 125.0704 0022379 147.6919 212.5688 15.12774453051688 LightSail-2 1 44420U 19036AC 20163.28898559 .00004313 00000-0 91784-3 0 9992 2 44420 024.0079 146.7681 0022213 082.1534 278.1479 14.55640503049424 Taurus 1 1 44530U 19059C 20163.78080832 .00000933 00000-0 27689-3 0 9998 2 44530 98.5686 244.8118 0015677 171.5611 188.5839 14.45557099 39526 MO-106 1 44830U 19084G 20163.17949360 .00052840 00000-0 30577-3 0 9996 2 44830 96.9745 32.2790 0024164 257.5586 102.2977 15.78021750 29464 TRSI-Sat 1 44831U 19084H 20162.42501539 .00052046 00000-0 30549-3 0 9993 2 44831 96.9749 31.5245 0024277 259.9354 99.9174 15.77702181 29352 MO-105 1 44832U 19084J 20163.43488310 .00058060 00000-0 31702-3 0 9991 2 44832 096.9752 032.6948 0023005 254.2528 105.6203 15.79334114029513 Duchifat 3 1 44854U 19089C 20163.89939390 .00000249 00000-0 26578-4 0 9991 2 44854 36.9653 131.1734 0008654 10.9846 349.1083 14.99065517 27464 OPS-SAT 1 44878U 19092F 20163.22877332 .00000797 00000-0 45518-4 0 9998 2 44878 097.4686 346.6078 0014803 024.6535 335.5401 15.15476093026592 FloripaSat 1 1 44885U 19093G 20163.72035104 .00000203 00000-0 32298-4 0 9998 2 44885 97.9576 239.9502 0016050 69.0564 291.2364 14.82032596 25853 RS-44 1 44909U 19096E 20163.80721155 .00000004 00000-0 -21989-4 0 9990 2 44909 82.5215 359.0674 0216430 239.5811 118.3746 12.79707809 21463 SwampSat-2 1 45115U 19071E 20163.08701637 .00009236 00000-0 27622-3 0 9990 2 45115 051.6430 033.4502 0013508 039.3677 320.8285 15.35204668020141 HO-107 1 45119U 19071J 20163.20667067 .00001145 00000-0 46270-4 0 9998 2 45119 051.6452 033.4869 0012676 034.2018 325.9779 15.33553856020163 Phoenix 1 45258U 98067RB 20163.77531441 .00003691 00000-0 70594-4 0 9996 2 45258 51.6425 14.2734 0005644 326.4609 33.6022 15.50830769 17591 AztechSat-1 1 45261U 98067RE 20163.03015775 .00007350 00000-0 12855-3 0 9997 2 45261 051.6424 017.5519 0007357 340.6644 019.4066 15.51739257017514 QARMAN 1 45263U 98067RG 20163.77166686 .00005884 00000-0 10675-3 0 9996 2 45263 51.6425 14.2526 0006906 340.5733 19.4992 15.51118887 17659 Quetzal 1 1 45598U 98067RL 20163.06865098 .00006041 00000-0 11272-3 0 9992 2 45598 51.6431 18.5539 0003571 70.6585 289.4790 15.50260396 6801 /EX
